Location: Casalecchio di Reno
(44.4760°N, 11.2757°E)
Time: 17:38:24
(UTC+02:00)

DX 1 - Pass Details

Date: 20 June 2024
Orbit: 607 x 619 km, 98.3° (Epoch: 19 July)

Event Time Altitude Azimuth Distance (km) Brightness Sun altitude
Rises 00:30:59 0° 26° (NNE) 2,877 ? -21.3°
Reaches altitude 10° 00:33:32 10° 41° (NE) 1,967 ? -21.4°
Maximum altitude 00:36:59 24° 95° (E) 1,281 ? -21.5°
Enters shadow 00:37:03 24° 96° (E) 1,282 ? -21.5°
